STARLINK-2046 (47354 NORAD) Tracking and Keplerian Element Data

This shows tracking and keplerian element data for the satellite.

Feedback or suggestion? Click here.




ElementValue
Catalog47354
NameSTARLINK-2046
Epoch Orbit1441
Epoch Day106.25002315
Epoch Year2021
RAAN150.7433
Inclination53.053
Eccentricity0.0004425
Argument of Perigee10.355
Mean Anonmoly66.3191
Mean Motion15.6278774
Decay Rate-4.716E-05
L11 47354U 21005F 21106.25002315 -.00004716 00000-0 -45564-4 0 9997
L22 47354 53.0530 150.7433 0004425 10.3550 66.3191 15.62787740 14416

Live tracking and technical data element details for STARLINK-2046 (NORAD 47354). STARLINK-2046 can be tracked NOW for your location showing map with azimuth and elevation plus other details from your city location.

Track the satellite on the map from your city or location and see movement details for azimuth, elevation, latitude, longitude, range, height, and movement on the map or in text.







IsCatalogInMostPopularTable: catalog: 47354, numindb: 16
Update: records affected: 1



GetName: 47354 STARLINK-2046

Hit Count: updated at: Fri, 16 Apr 2021 10:56:38 GMT